[Iaude] MPEC S10: 2023 RD13 [a=1.30,e=0.25,i=3.9,H=26.6]

mpec at marsden.cfa.harvard.edu mpec at marsden.cfa.harvard.edu
Sat Sep 16 09:58:53 EDT 2023


M.P.E.C. 2023-S10                            Issued 2023 September 16, 13:57 UT

     The Minor Planet Electronic Circulars contain information on unusual
         minor planets, routine data on comets and natural satellites,
         and occasional editorial announcements.  They are published
    on behalf of Division F of the International Astronomical Union by the
          Minor Planet Center, Smithsonian Astrophysical Observatory,
                          Cambridge, MA 02138, U.S.A.
			  
             Prepared using the Tamkin Foundation Computer Network

                              MPC at CFA.HARVARD.EDU
            URL https://www.minorplanetcenter.net/    ISSN 1523-6714

                                   2023 RD13                                    


Observations:
     K23R13D  C2023 08 23.39695321 44 52.235-04 29 22.26         21.71GVES010F51
     K23R13D  C2023 08 23.41037421 44 52.887-04 29 44.01         21.99GVES010F51
     K23R13D  C2023 08 23.42381921 44 53.553-04 30 05.96         22.17GVES010F51
     K23R13D  C2023 08 23.43728721 44 54.232-04 30 27.95         21.95GVES010F51
     K23R13D  C2023 09 07.39463122 44 33.149-19 38 02.87         20.06GVES010F51
     K23R13D  C2023 09 07.39719822 44 34.288-19 38 21.61         20.31GVES010F51
     K23R13D  C2023 09 07.40625822 44 38.279-19 39 27.16         20.11GVES010F51
     K23R13D  C2023 09 08.41912222 54 29.196-21 47 23.38         20.13GVES010F51
     K23R13D  C2023 09 08.43094522 54 35.390-21 48 57.81         20.08GVES010F51
     K23R13D  C2023 09 08.44275122 54 41.579-21 50 31.58         20.00GVES010F51
     K23R13D  C2023 09 08.54486622 55 36.822-22 03 49.37         20.36GVES010F51
     K23R13D  C2023 09 08.54568022 55 37.268-22 03 55.38         19.98GVES010F51
     K23R13D  C2023 09 11.42912023 35 22.978-29 29 28.79         19.68GVES010F51
     K23R13D  C2023 09 11.43919923 35 32.051-29 31 13.76         19.81GVES010F51
     K23R13D*KC2023 09 13.22534 00 11 44.44 -34 48 37.5          19.0 GVES010W94
     K23R13D KC2023 09 13.23156 00 11 52.18 -34 49 46.8          18.9 GVES010W94
     K23R13D KC2023 09 13.23781 00 12 00.03 -34 50 53.8          19.7 GVES010W94
     K23R13D  C2023 09 13.28825300 13 05.76 -34 59 13.3                WES010X09
     K23R13D  C2023 09 13.29293500 13 11.76 -35 00 03.7                WES010X09
     K23R13D KC2023 09 13.38436 00 15 10.70 -35 16 17.6          19.9 GVES010X10
     K23R13D KC2023 09 13.39003 00 15 18.45 -35 17 15.2          19.9 GVES010X10
     K23R13D KC2023 09 13.39587 00 15 26.48 -35 18 13.3          19.8 GVES010X10
     K23R13D  C2023 09 13.43892100 16 56.979-35 31 10.54         19.58GVES010F51
     K23R13D  C2023 09 13.44871300 17 09.820-35 33 00.40         19.84GVES010F51
     K23R13D  C2023 09 13.45853400 17 22.542-35 34 48.43         19.85GVES010F51
     K23R13D  C2023 09 13.46830200 17 35.302-35 36 35.89         19.75GVES010F51
     K23R13D KC2023 09 14.25907 00 38 11.55 -37 55 37.2          20.5 GVES010X10
     K23R13D KC2023 09 14.26478 00 38 20.07 -37 56 35.8          19.5 GVES010X10
     K23R13D KC2023 09 14.27048 00 38 28.64 -37 57 35.2          19.3 GVES010X10
     K23R13D 0B2023 09 15.03219901 00 59.505-40 07 28.74         20.2 VZES010M49
     K23R13D 0B2023 09 15.03906901 01 11.139-40 08 34.58         20.1 VZES010M49
     K23R13D 0B2023 09 15.04589301 01 22.649-40 09 39.79         20.1 VZES010M49

Observer details:
F51 Pan-STARRS 1, Haleakala.  Observers J. Bulger, K. Chambers, T. Lowe, P.
    Minguez, A. Schultz, I. Smith.  Measurers S. Chastel, J. Fairlamb, M.
    Huber, Y. Ramanjooloo, R. Wainscoat, R. Weryk.  1.8-m Ritchey-Chretien +
    CCD.
M49 IAS Remote Observatory, Hakos.  Observers D. Husar, M. Junius.  Measurer
    D. Husar.  0.25-m f/4.6 reflector + CMO.
W94 MAP, San Pedro de Atacama.  Observers A. Maury, G. Attard.  Measurers D.
    Parrott, F. Signoret, J.-M. Mari.  0.28-m f/2.2 Schmidt astrograph + CCD.
X09 Deep Random Survey, Rio Hurtado.  Observers A. Schnabel, D. Ruhela.
    Measurer S. Deen.  0.43-m reflector + CMOS.
X10 OVTLN, San Pedro de Atacama.  Observers A. Maury, G. Attard, F. Signoret.
    Measurers A. Maury, G. Attard, D. Parrott, J.-M. Mari.  0.50-m f/4
    reflector + CCD.

Orbital elements:
2023 RD13                                                Earth MOID = 0.0230 AU
Epoch 2023 Sept. 13.0 TT = JDT 2460200.5                Veres                   
M 336.02899              (2000.0)            P               Q                  
n   0.66163425     Peri.  230.86158     +0.87125368     -0.49018410             
a   1.3043397      Node   158.45511     +0.46886559     +0.81595429             
e   0.2474399      Incl.    3.93957     +0.14519670     +0.30649329             
P   1.49           H   26.65          G   0.15           U   8                  
Residuals in seconds of arc
230823 F51  0.1+  0.1+    230908 F51  0.0   0.1+    230913 F51  0.3-  0.1+
230823 F51  0.1-  0.1+    230911 F51  0.0   0.1+    230913 F51  0.8+  0.7-
230823 F51  0.1-  0.1-    230911 F51  0.1-  0.2+    230913 F51  0.2-  0.1+
230823 F51  0.1+  0.3-    230913 W94  0.2+  0.5+    230913 F51  0.0   0.1+
230907 F51  0.1-  0.1+    230913 W94  0.5-  0.8-    230914 X10  0.2+  0.4-
230907 F51  0.1+  0.0     230913 W94  0.5-  0.3+    230914 X10  0.3-  0.4+
230907 F51  0.0   0.0     230913 X09  0.6+  0.3-    230914 X10  0.2-  0.0
230908 F51  0.0   0.0     230913 X09  0.2+  1.1-    230915 M49  0.4-  0.2+
230908 F51  0.1+  0.0     230913 X10  0.1+  0.5+    230915 M49  0.0   0.4+
230908 F51  0.0   0.1+    230913 X10  0.1+  0.4-    230915 M49  0.4-  0.3+
230908 F51  0.2+  0.2-    230913 X10  0.3+  0.3-

Ephemeris:
2023 RD13                a,e,i = 1.30, 0.25, 4                   q = 0.9816
Date    TT    R. A. (2000) Decl.     Delta      r    Elong.  Phase     V
2023 08 17    21 37 17.3 -02 19 10   0.09991 1.1107   168.5    10.4    22.5
...
2023 09 01    22 06 21.8 -10 23 00   0.05278 1.0617   171.8     7.8    20.9
...
2023 09 09    23 00 52.0 -23 03 49   0.03296 1.0389   162.5    17.0    20.2
...
2023 09 15    01 00 01.2 -40 00 21   0.02404 1.0239   138.0    41.1    20.2
2023 09 16    01 33 03.0 -42 30 14   0.02348 1.0216   132.2    46.8    20.3
2023 09 17    02 09 34.3 -44 23 48   0.02326 1.0193   126.2    52.7    20.5
...
2023 09 23    05 28 22.7 -40 58 08   0.02836 1.0069    95.7    82.7    21.8
...
2023 10 01    07 10 08.7 -28 36 26   0.04451 0.9939    79.1    98.4    23.4
...
2023 10 16    08 06 45.9 -18 27 06   0.08021 0.9817    76.6    98.8    24.7

M. P. C. Staff               (C) Copyright 2023 MPC           M.P.E.C. 2023-S10





More information about the Iaude mailing list